N5RPG Weather Reports


time (UTC)temp
F
wind
direction
speed
knots
gust
knots
rain 1hr
in
rain 24hr
in
rain mn
in
humidity
%
barometer
mb
20260502164124 70 44 1.7 6.1 0.00 0.00 0.00 46 1022.6
20260502163620 70 242 0.9 2.6 0.00 0.00 0.00 48 1022.7
20260502163117 70 345 2.6 3.5 0.00 0.00 0.00 52 1022.7
20260502162614 69 333 1.7 5.2 0.00 0.00 0.00 54 1022.5
20260502162111 69 122 0.0 3.5 0.00 0.00 0.00 52 1022.6
20260502161608 68 138 3.5 5.2 0.00 0.00 0.00 55 1022.7
20260502161105 71 52 7.0 7.8 0.00 0.00 0.00 51 1022.5
20260502160603 71 92 0.9 3.5 0.00 0.00 0.00 52 1022.4
20260502152016 67 134 2.6 5.2 0.00 0.00 0.00 60 1022.1
20260502151513 68 129 4.3 4.3 0.00 0.00 0.00 58 1021.7
20260502151010 68 123 0.0 3.5 0.00 0.00 0.00 64 1022.1
20260502150508 67 47 0.0 2.6 0.00 0.00 0.00 64 1022.1
20260502130352 56 333 0.9 2.6 0.00 0.00 0.00 95 1021.5
20260502123335 52 234 0.0 0.9 0.00 0.00 0.00 98 1020.9
20260502122832 52 257 0.0 1.7 0.00 0.00 0.00 98 1020.6
20260502122328 51 166 0.0 0.9 0.00 0.00 0.00 98 1020.6
20260502121827 51 164 0.0 0.9 0.00 0.00 0.00 98 1020.5
20260502121324 51 293 0.0 0.9 0.00 0.00 0.00 98 1020.3
20260502120820 51 119 0.0 1.7 0.00 0.00 0.00 98 1020.1
20260502120317 51 168 0.0 0.9 0.00 0.00 0.00 98 1020.1
20260502115815 51 72 0.0 0.9 0.00 0.00 0.00 97 1019.7
20260502115312 51 89 0.0 0.9 0.00 0.00 0.00 97 1019.9
20260502114808 51 156 0.0 1.7 0.00 0.00 0.00 97 1019.9
20260502114304 51 267 0.0 1.7 0.00 0.00 0.00 98 1019.6
20260502113802 51 303 0.0 1.7 0.00 0.00 0.00 98 1019.6
20260502113259 51 73 1.7 1.7 0.00 0.00 0.00 97 1019.8
20260502112757 51 325 0.0 0.9 0.00 0.00 0.00 97 1019.7
20260502112255 51 62 0.9 1.7 0.00 0.00 0.00 97 1019.5
20260502111751 51 257 0.0 1.7 0.02 0.00 0.00 97 1019.4
20260502111249 51 69 0.0 0.9 0.02 0.00 0.00 97 1019.4
20260502110746 51 210 0.9 1.7 0.00 0.00 0.00 97 1019.3
20260502110244 51 148 0.0 0.0 0.00 0.00 0.00 97 1019.3
20260502105742 51 217 0.9 1.7 0.00 0.00 0.00 97 1019.4
20260502105238 52 54 0.0 1.7 0.00 0.00 0.00 97 1019.2
20260502104736 52 167 0.0 0.9 0.00 0.00 0.00 97 1019.1
20260502104233 52 230 0.9 0.9 0.00 0.00 0.00 97 1019.0
20260502103731 52 172 1.7 1.7 0.00 0.00 0.00 97 1019.3
20260502103228 52 181 0.0 0.9 0.00 0.00 0.00 97 1019.2
20260502102725 52 225 0.9 1.7 0.00 0.00 0.00 97 1019.4
20260502102221 52 269 0.0 1.7 0.00 0.00 0.00 97 1019.1
20260502101720 52 102 0.0 0.9 0.00 0.00 0.00 96 1018.8
20260502101218 52 166 0.0 0.9 0.00 0.00 0.00 96 1019.0
20260502100715 52 70 0.9 0.9 0.00 0.00 0.00 96 1018.7
20260502100214 53 218 0.0 0.9 0.00 0.00 0.00 96 1018.6
20260502091147 53 218 0.0 1.7 0.00 0.00 0.00 96 1018.6
20260502090645 53 141 0.0 0.0 0.00 0.00 0.00 96 1018.5
20260502090142 54 130 0.0 0.0 0.00 0.00 0.00 96 1018.8
20260502080104 54 62 0.9 0.9 0.00 0.00 0.00 95 1018.7
20260502071037 55 113 0.0 0.9 0.00 0.00 0.00 96 1018.6
20260502070535 55 339 0.0 0.9 0.00 0.00 0.00 96 1018.7
20260502070033 55 245 0.0 0.0 0.00 0.00 0.00 97 1018.8
20260502065531 55 73 0.0 0.9 0.00 0.00 0.00 97 1018.8
20260502065028 55 12 0.0 0.9 0.00 0.00 0.00 97 1018.6
20260502064527 55 341 0.0 0.9 0.00 0.00 0.00 97 1018.6
20260502064024 55 50 0.0 0.9 0.00 0.00 0.00 97 1018.8
20260502063521 55 202 0.0 0.9 0.00 0.00 0.00 97 1018.8
20260502063019 55 290 0.0 1.7 0.00 0.00 0.00 97 1018.8
20260502062516 55 63 0.9 1.7 0.00 0.00 0.00 98 1018.7
20260502062015 55 103 0.0 1.7 0.00 0.00 0.00 98 1018.7
20260502061512 55 73 0.0 1.7 0.00 0.00 0.00 98 1018.8
20260502061009 55 33 0.0 1.7 0.00 0.00 0.00 98 1018.9
20260502060503 55 52 0.0 0.9 0.00 0.00 0.00 98 1019.1
20260502060000 55 19 0.0 0.0 0.00 0.00 0.00 98 1019.0
20260502055458 55 44 0.0 1.7 0.00 0.00 0.00 98 1018.9
20260502054957 55 55 0.0 0.0 0.00 0.00 0.00 98 1019.0
20260502054455 55 7 2.6 2.6 0.00 0.00 0.00 98 1019.0
20260502053952 55 246 0.0 0.9 0.00 0.00 0.00 98 1019.0
20260502053449 55 185 0.0 0.9 0.00 0.00 0.00 98 1018.8
20260502052947 55 66 0.0 0.0 0.00 0.00 0.00 98 1018.8
20260502052444 55 57 0.0 0.9 0.00 0.00 0.00 98 1018.8
20260502051943 55 191 0.0 0.0 0.00 0.00 0.00 98 1018.9
20260502051441 55 157 0.0 0.9 0.00 0.00 0.00 98 1018.6
20260502050937 55 249 0.0 0.9 0.00 0.00 0.00 98 1018.8
20260502050434 55 309 0.0 1.7 0.00 0.00 0.00 98 1018.7
20260502045931 55 44 0.0 1.7 0.00 0.40 0.40 98 1018.9
20260502045428 55 89 0.0 0.9 0.00 0.40 0.40 98 1018.7
20260502044925 55 224 0.0 0.0 0.00 0.40 0.40 98 1018.6
20260502044420 55 246 0.0 0.0 0.00 0.40 0.40 97 1018.6
20260502043918 55 110 0.0 0.0 0.00 0.40 0.40 97 1018.6
20260502043416 55 22 0.0 0.0 0.00 0.40 0.40 97 1018.6
20260502042915 55 44 0.0 0.0 0.00 0.40 0.40 97 1018.6
20260502042413 55 116 0.0 0.0 0.00 0.40 0.40 97 1018.5
20260502041909 55 116 0.0 0.0 0.00 0.40 0.40 97 1018.3
20260502041407 55 185 0.0 0.0 0.00 0.40 0.40 97 1018.2
20260502040904 55 237 0.0 0.0 0.00 0.40 0.40 97 1018.3
20260502040400 55 103 0.0 0.0 0.00 0.40 0.40 97 1018.4
20260502035856 55 44 0.0 0.0 0.00 0.40 0.40 97 1018.3
20260502035353 55 82 0.0 0.0 0.00 0.40 0.40 97 1018.4
20260502034851 55 89 0.0 0.0 0.00 0.40 0.40 97 1018.1
20260502034349 55 336 0.0 0.0 0.00 0.40 0.40 97 1018.2
20260502033847 55 359 0.0 0.0 0.00 0.40 0.40 97 1018.2
20260502033345 55 180 0.0 0.0 0.00 0.40 0.40 97 1018.1
20260502032841 55 180 0.0 0.9 0.00 0.40 0.40 97 1018.0
20260502032337 56 131 0.0 0.0 0.00 0.40 0.40 97 1017.9
20260502031835 56 147 0.0 1.7 0.00 0.40 0.40 97 1017.9
20260502031333 55 161 0.9 0.9 0.00 0.40 0.40 97 1018.2
20260502030831 56 232 0.0 0.0 0.00 0.40 0.40 97 1018.0
20260502030329 56 256 0.0 0.9 0.00 0.40 0.40 97 1018.0
20260502025826 56 32 0.0 0.0 0.00 0.40 0.40 97 1018.1
20260502025324 56 30 0.0 1.7 0.00 0.40 0.40 97 1017.9
20260502024822 56 124 0.0 1.7 0.02 0.40 0.40 97 1017.6
20260502024319 56 18 0.9 1.7 0.02 0.40 0.40 97 1017.7
20260502023817 56 84 0.9 1.7 0.00 0.40 0.40 97 1017.5
20260502023315 56 172 0.0 0.9 0.00 0.40 0.40 97 1017.7
20260502022813 56 130 0.9 1.7 0.00 0.40 0.40 97 1017.9
20260502022308 56 136 0.9 1.7 0.00 0.40 0.40 97 1018.1
20260502021805 56 126 0.0 0.0 0.00 0.40 0.40 96 1018.5
20260502021303 56 135 0.0 0.0 0.00 0.40 0.40 96 1018.5
20260502020759 56 193 0.0 0.9 0.00 0.40 0.40 96 1018.3
20260502020257 56 187 0.9 0.9 0.00 0.40 0.40 96 1017.8
20260502015754 56 189 0.9 0.9 0.00 0.40 0.40 96 1017.6
20260502015250 56 114 0.0 1.7 0.00 0.40 0.40 96 1017.6
20260502014748 56 153 0.9 1.7 0.00 0.40 0.40 95 1017.5
20260502014245 56 249 0.0 0.0 0.00 0.40 0.40 95 1017.8
20260502013741 56 55 0.0 0.0 0.00 0.40 0.40 95 1017.4
20260502013236 56 103 0.0 0.9 0.00 0.40 0.40 95 1017.2
20260502012734 56 249 0.0 0.0 0.00 0.40 0.40 95 1016.9
20260502012232 56 299 0.0 0.0 0.00 0.40 0.40 95 1016.8
20260502011729 56 78 0.9 1.7 0.00 0.40 0.40 95 1016.8
20260502011224 56 58 0.9 1.7 0.00 0.40 0.40 95 1016.9
20260502010722 56 86 0.0 1.7 0.00 0.40 0.40 95 1017.1
20260502010218 56 0 0.0 0.0 0.00 0.40 0.40 95 1017.3
20260502005715 57 269 0.0 0.0 0.00 0.40 0.40 95 1017.3
20260502005213 57 243 0.0 0.9 0.00 0.40 0.40 94 1017.0
20260502004709 57 6 0.0 0.9 0.00 0.40 0.40 94 1016.7
20260502004206 57 91 1.7 2.6 0.00 0.40 0.40 94 1016.7
20260502003704 57 6 0.9 0.9 0.00 0.40 0.40 94 1017.2
20260502003201 57 15 0.0 0.9 0.00 0.40 0.40 94 1017.2
20260502002656 57 9 0.9 0.9 0.00 0.40 0.40 93 1017.1
20260502002155 57 129 0.0 0.9 0.02 0.40 0.40 93 1017.1
20260502001652 57 129 0.0 0.0 0.02 0.40 0.40 93 1017.1
20260502001149 57 22 0.0 1.7 0.00 0.39 0.39 93 1017.0
20260502000647 57 97 0.9 0.9 0.02 0.39 0.39 92 1017.0
20260502000144 57 124 0.0 1.7 0.02 0.39 0.39 92 1016.9
20260501235640 57 187 0.0 0.9 0.00 0.39 0.39 92 1016.7
20260501235136 57 121 1.7 1.7 0.00 0.39 0.39 92 1016.6
20260501234631 57 11 0.9 0.9 0.00 0.39 0.39 91 1016.8
20260501234129 57 251 1.7 1.7 0.00 0.39 0.39 92 1016.8
20260501233627 57 11 0.0 1.7 0.00 0.39 0.39 92 1016.6
20260501233124 57 257 0.0 0.9 0.00 0.39 0.39 91 1016.5
20260501232620 57 353 0.0 1.7 0.00 0.39 0.39 91 1016.4
20260501232118 57 100 0.9 1.7 0.02 0.39 0.39 89 1016.1
20260501231615 57 41 1.7 1.7 0.02 0.39 0.39 88 1016.3
20260501231114 58 84 0.9 2.6 0.00 0.39 0.39 87 1016.4
20260501230612 58 71 1.7 1.7 0.00 0.39 0.39 86 1016.3
20260501230110 58 50 0.0 1.7 0.00 0.39 0.39 86 1016.8
20260501225607 59 217 0.0 0.0 0.00 0.39 0.39 85 1016.9
20260501225103 59 339 0.0 0.9 0.00 0.39 0.39 83 1016.4
20260501224600 59 76 0.0 1.7 0.00 0.39 0.39 83 1016.1
20260501224057 59 89 1.7 1.7 0.00 0.39 0.39 83 1016.0
20260501223554 59 43 0.9 3.5 0.00 0.39 0.39 81 1016.1
20260501223050 59 13 0.9 6.1 0.00 0.39 0.39 80 1015.9
20260501222546 59 119 1.7 1.7 0.00 0.39 0.39 81 1015.7
20260501222043 59 91 1.7 3.5 0.00 0.39 0.39 80 1015.6
20260501221540 59 84 2.6 7.0 0.00 0.39 0.39 79 1015.4
20260501221037 60 131 6.1 6.1 0.00 0.39 0.39 79 1015.3
20260501220535 60 122 2.6 6.1 0.00 0.39 0.39 78 1015.2
20260501220032 60 75 1.7 2.6 0.00 0.39 0.39 80 1015.0
20260501215528 60 45 1.7 2.6 0.00 0.39 0.39 78 1015.1
20260501215023 60 17 0.0 1.7 0.00 0.39 0.39 80 1015.0
20260501214519 59 181 1.7 2.6 0.00 0.39 0.39 82 1015.0
20260501214015 59 325 1.7 3.5 0.00 0.39 0.39 82 1015.4
20260501213512 59 86 2.6 3.5 0.00 0.39 0.39 83 1015.5
20260501213008 59 114 1.7 3.5 0.00 0.39 0.39 82 1015.8
20260501212504 59 342 1.7 1.7 0.00 0.39 0.39 82 1016.1
20260501212001 58 6 0.0 3.5 0.00 0.39 0.39 80 1016.2
20260501211458 59 7 1.7 1.7 0.00 0.39 0.39 82 1016.3
20260501210956 59 353 0.0 1.7 0.00 0.39 0.39 82 1016.4
20260501210452 59 93 5.2 5.2 0.00 0.39 0.39 82 1016.3
20260501205949 59 248 0.0 2.6 0.00 0.39 0.39 82 1016.2
20260501205446 59 27 0.0 1.7 0.00 0.39 0.39 83 1016.2
20260501204943 59 102 1.7 2.6 0.00 0.39 0.39 81 1015.8
20260501204439 59 70 4.3 5.2 0.00 0.39 0.39 80 1015.6
20260501203935 59 84 1.7 7.8 0.00 0.39 0.39 79 1015.4
20260501203432 59 276 4.3 4.3 0.00 0.39 0.39 80 1015.3
20260501202930 59 43 2.6 7.0 0.00 0.39 0.39 80 1015.0
20260501202427 59 40 3.5 7.8 0.00 0.39 0.39 82 1014.6
20260501201923 59 101 2.6 5.2 0.00 0.39 0.39 83 1014.7
20260501201420 59 31 1.7 3.5 0.00 0.39 0.39 85 1014.2
20260501200917 59 52 4.3 5.2 0.00 0.39 0.39 84 1014.3
20260501200414 59 54 2.6 6.1 0.00 0.39 0.39 84 1014.5
20260501195912 60 63 2.6 5.2 0.00 0.39 0.39 86 1014.2
20260501195408 59 115 1.7 7.0 0.00 0.39 0.39 89 1014.5
20260501194904 58 19 4.3 5.2 0.00 0.39 0.39 90 1014.4
20260501194400 58 97 1.7 5.2 0.00 0.39 0.39 92 1014.5
20260501193855 58 18 1.7 3.5 0.00 0.39 0.39 94 1014.9
20260501193354 57 91 2.6 4.3 0.00 0.39 0.39 95 1014.6
20260501192852 57 78 1.7 2.6 0.00 0.39 0.39 95 1014.8
20260501192349 56 62 1.7 7.0 0.00 0.39 0.39 95 1014.8
20260501191845 56 132 3.5 7.0 0.00 0.39 0.39 95 1015.0
20260501191343 56 126 3.5 4.3 0.00 0.39 0.39 96 1015.3
20260501190839 56 88 2.6 4.3 0.00 0.39 0.39 95 1015.9
20260501190336 55 51 1.7 7.0 0.00 0.39 0.39 96 1016.1
20260501185831 55 105 0.9 2.6 0.00 0.39 0.39 96 1016.2
20260501185327 56 28 2.6 3.5 0.00 0.39 0.39 96 1016.5
20260501184823 56 77 2.6 3.5 0.00 0.39 0.39 97 1016.5
20260501184319 55 47 3.5 3.5 0.02 0.39 0.39 97 1016.5
20260501183815 55 118 0.0 4.3 0.02 0.39 0.39 97 1016.6
20260501183313 55 106 1.7 3.5 0.00 0.38 0.38 97 1017.0
20260501182809 55 26 1.7 3.5 0.00 0.38 0.38 97 1017.2
20260501182307 55 120 4.3 4.3 0.00 0.38 0.38 97 1017.1
20260501181802 55 58 2.6 2.6 0.00 0.38 0.38 97 1017.2
20260501181259 55 101 1.7 3.5 0.02 0.38 0.38 97 1016.8
20260501180757 55 82 2.6 6.1 0.00 0.38 0.38 97 1016.8
20260501180253 55 72 0.0 5.2 0.02 0.38 0.38 97 1016.7
20260501175749 55 83 1.7 1.7 0.00 0.37 0.37 97 1017.2
20260501175247 55 119 0.0 1.7 0.02 0.37 0.37 97 1017.3
20260501174743 55 123 1.7 4.3 0.02 0.37 0.37 97 1017.6
20260501174240 55 92 1.7 2.6 0.00 0.37 0.37 97 1017.6
20260501173738 55 75 0.9 2.6 0.02 0.37 0.37 97 1018.0
20260501173235 55 10 0.0 2.6 0.02 0.37 0.37 97 1018.1
20260501172731 55 60 2.6 3.5 0.00 0.37 0.37 97 1018.0
20260501172226 55 121 3.5 4.3 0.00 0.37 0.37 97 1017.9
20260501171722 55 45 1.7 5.2 0.02 0.37 0.37 97 1017.9
20260501171220 55 151 2.6 3.5 0.02 0.37 0.37 98 1017.7
20260501170717 55 77 1.7 3.5 0.00 0.36 0.36 98 1018.1
20260501170213 55 64 0.0 2.6 0.02 0.36 0.36 98 1018.2